Greybull, WY

6:20 PM MST on December 09, 2019 (GMT -0700)
South Big Horn County

Weather History for KGEY - October, 2019

Change the Weather History Date:

Wednesday, October 9, 2019

  Actual Average Record
Temperature  
Mean Temperature 32 °F 49 °F  
Max Temperature 39 °F 63 °F 86 °F (2003)
Min Temperature 24 °F 35 °F 20 °F (2009)
Degree Days  
Heating Degree Days 33 16  
Month to date heating degree days 191 133  
Since 1 July heating degree days 366 364  
Cooling Degree Days 0 0  
Month to date cooling degree days 0 0  
Year to date cooling degree days 733 669  
Moisture  
Dew Point 21 °F    
Average Humidity 72    
Maximum Humidity 81    
Minimum Humidity 63    
Precipitation  
Precipitation 0.01 in 0.03 in 0.62 in (2006)
Month to date precipitation 0.26 0.23  
Year to date precipitation 7.58 6.56  
Sea Level Pressure  
Sea Level Pressure 30.00 in    
Wind  
Wind Speed 20 mph (NW)    
Max Wind Speed 32 mph    
Max Gust Speed 41 mph    
Visibility 10 miles    
Events Snow    
T = Trace of Precipitation, MM = Missing Value Source: NWS Daily Summary

Daily Weather History Graph

Daily Weather History Graph

Search for Another Location

Airport or City:

Astronomy

Oct. 09, 2019 Rise Set
Actual Time 7:19 AM MDT 6:38 PM MDT
Civil Twilight 6:50 AM MDT 7:07 PM MDT
Nautical Twilight 6:16 AM MDT 7:41 PM MDT
Astronomical Twilight 5:43 AM MDT 8:15 PM MDT
Moon 5:24 PM MDT (10/9) 2:55 AM MDT (10/9)
Length of Visible Light 12h 17m
Length of Day
11h 18m
Waxing Gibbous, 85% of the Moon is Illuminated
Oct 9
Waxing Gibbous
Oct 13
Full
Oct 21
Last Quarter
Oct 27
New
Nov 4
First Quarter

Hourly Weather History & Observations

Time (MDT) Temp. Windchill Dew Point Humidity Pressure Visibility Wind Dir Wind Speed Gust Speed Precip Events Conditions
12:53 AM 39.0 °F 27.8 °F 30.0 °F 70% 29.72 in 10.0 mi NW 26.5 mph 44.9 mph N/A   Clear
1:53 AM 37.0 °F 27.0 °F 28.0 °F 70% 29.70 in 10.0 mi WNW 18.4 mph 28.8 mph N/A   Clear
2:53 AM 35.1 °F 22.5 °F 26.1 °F 70% 29.70 in 10.0 mi NW 26.5 mph 36.8 mph N/A   Clear
3:53 AM 34.0 °F 23.4 °F 26.1 °F 73% 29.72 in 10.0 mi WNW 17.3 mph - N/A   Clear
4:53 AM 34.0 °F 23.0 °F 25.0 °F 70% 29.73 in 10.0 mi NW 18.4 mph - N/A   Clear
5:53 AM 34.0 °F 26.0 °F 26.1 °F 73% 29.75 in 10.0 mi NNW 10.4 mph - N/A   Clear
6:53 AM 33.1 °F 24.4 °F 25.0 °F 72% 29.79 in 10.0 mi NW 11.5 mph - N/A   Overcast
7:02 AM 33.1 °F 22.6 °F 25.0 °F 72% 29.80 in 10.0 mi NW 16.1 mph - N/A   Overcast
7:53 AM 32.0 °F 21.2 °F 23.0 °F 69% 29.83 in 10.0 mi NNW 16.1 mph - N/A   Overcast
8:53 AM 30.9 °F 18.7 °F 21.9 °F 69% 29.87 in 10.0 mi WNW 19.6 mph - N/A   Overcast
9:53 AM 30.9 °F 18.7 °F 21.0 °F 67% 29.90 in 10.0 mi NW 19.6 mph 28.8 mph N/A   Overcast
10:53 AM 28.9 °F 16.1 °F 23.0 °F 78% 29.96 in 10.0 mi NNW 19.6 mph 28.8 mph 0.00 in   Overcast
11:53 AM 28.0 °F 13.3 °F 21.0 °F 75% 30.00 in 10.0 mi NW 25.3 mph 34.5 mph 0.00 in   Overcast
12:53 PM 27.0 °F 13.2 °F 21.9 °F 81% 30.03 in 9.0 mi NW 20.7 mph - 0.00 in Snow Light Snow
1:53 PM 26.1 °F 12.7 °F 21.9 °F 84% 30.04 in 9.0 mi NW 18.4 mph 27.6 mph 0.00 in Snow Light Snow
2:53 PM 27.0 °F 12.8 °F 21.9 °F 81% 30.07 in 9.0 mi NW 21.9 mph 29.9 mph 0.01 in Snow Light Snow
3:25 PM 27.0 °F 12.8 °F 21.9 °F 81% 30.00 in 9.0 mi NW 21.9 mph 31.1 mph 0.00 in Snow Light Snow
3:53 PM 27.0 °F 12.5 °F 21.0 °F 78% 30.10 in 9.0 mi NW 23.0 mph 34.5 mph 0.00 in Snow Light Snow
4:30 PM 27.0 °F 12.8 °F 19.9 °F 75% 30.02 in 9.0 mi NNW 21.9 mph 31.1 mph 0.00 in Snow Light Snow
4:53 PM 27.0 °F 12.5 °F 19.9 °F 75% 30.13 in 9.0 mi NNW 23.0 mph 33.4 mph 0.00 in Snow Light Snow
5:53 PM 26.1 °F 11.0 °F 18.0 °F 71% 30.18 in 9.0 mi NNW 24.2 mph 38.0 mph 0.00 in Snow Light Snow
6:10 PM 26.1 °F 10.7 °F 18.0 °F 71% 30.09 in 9.0 mi NNW 25.3 mph 36.8 mph 0.00 in Snow Light Snow
6:53 PM 26.1 °F 10.1 °F 16.0 °F 66% 30.22 in 9.0 mi NNW 27.6 mph 34.5 mph 0.00 in Snow Light Snow
7:53 PM 26.1 °F 12.7 °F 17.1 °F 69% 30.27 in 10.0 mi NNW 18.4 mph - 0.00 in   Overcast
8:26 PM 26.1 °F 13.1 °F 17.1 °F 69% 30.17 in 10.0 mi NNW 17.3 mph - 0.00 in   Overcast
8:53 PM 26.1 °F 12.3 °F 17.1 °F 69% 30.30 in 10.0 mi NW 19.6 mph - 0.00 in   Overcast
9:53 PM 25.0 °F 10.2 °F 16.0 °F 69% 30.31 in 10.0 mi NNW 21.9 mph 29.9 mph N/A   Overcast
10:53 PM 25.0 °F 12.6 °F 16.0 °F 69% 30.34 in 10.0 mi NW 15.0 mph - N/A   Overcast
11:53 PM 25.0 °F 11.3 °F 16.0 °F 69% 30.36 in 10.0 mi NNW 18.4 mph 25.3 mph N/A   Overcast